Overview Statistics Trail Chart Weather Telemetry Raw packets
 

This is the latest recevied weather packets stored in our database for station/object VE6HFD-WX. If no packets are shown the sender has not sent any weather packets the latest 10 day(s).

<< 27 28 29 30 31 32 33 >>
Time Temp. Humidity Pressure Rain* Wind** Luminosity Snow
1777854575 14.44° C 36% 1006.7 hPa 0 mm - - -
1777854275 14.44° C 36% 1006.6 hPa 0 mm - - -
1777853945 14.44° C 36% 1006.5 hPa 0 mm - - -
1777853615 14.44° C 35% 1006.3 hPa 0 mm - - -
1777853315 15° C 35% 1006.3 hPa 0 mm - - -
1777852985 15° C 36% 1006.3 hPa 0 mm - - -
1777852655 15° C 35% 1006 hPa 0 mm - - -
1777852355 15.56° C 34% 1006.1 hPa 0 mm - - -
1777852067 16.11° C 34% 1006.2 hPa 0 mm - - -
1777851725 16.11° C 34% 1006.2 hPa 0 mm - - -
1777851425 16.67° C 33% 1006.3 hPa 0 mm - - -
1777851095 16.67° C 33% 1006.4 hPa 0 mm - - -
1777850765 16.67° C 32% 1006.3 hPa 0 mm - - -
1777850435 17.22° C 31% 1006.2 hPa 0 mm - - -
1777850135 17.22° C 31% 1006.2 hPa 0 mm - - -
1777849805 17.78° C 32% 1006 hPa 0 mm - - -
1777849505 17.78° C 32% 1005.9 hPa 0 mm - - -
1777849175 17.22° C 31% 1005.9 hPa 0 mm - - -
1777848875 17.22° C 30% 1005.8 hPa 0 mm - - -
1777848575 18.33° C 31% 1005.7 hPa 0 mm - - -
1777848275 18.33° C 30% 1005.6 hPa 0 mm - - -
1777847975 18.33° C 31% 1005.7 hPa 0 mm - - -
1777847675 18.33° C 30% 1005.6 hPa 0 mm - - -
1777847345 18.33° C 31% 1005.6 hPa 0 mm - - -
1777847015 18.33° C 30% 1005.6 hPa 0 mm - - -

* Rain latest hour (hover to see other rain measurements)
** Current wind speed in m/s (hover to see current wind gust speed)